Regional Weather Roundup
Issued by NWS

Home | Current Version | Previous Version | Text Only | Print | Product List | Glossary On
Versions: 1 2 3 4 5 6 7 8 9 10 11 12 13 14 15 16 17 18 19 20 21 22 23 24 25 26 27 28 29 30 31 32 33 34 35 36 37 38 39 40 41 42 43 44 45 46 47 48 49 50
121
ASUS43 KTOP 281908
RWRKS

WEATHER ROUNDUP FOR KANSAS
NATIONAL WEATHER SERVICE GOODLAND KS
200 PM CDT WED JUN 28 2017

NOTE:  "FAIR" INDICATES FEW OR NO CLOUDS BELOW 12,000 FEET WITH NO
SIGNIFICANT WEATHER AND/OR OBSTRUCTIONS TO VISIBILITY.

KSZ001>006-013>018-027>032-041>047-282000-
NORTHWEST KANSAS

CITY           SKY/WX    TMP DP  RH WIND       PRES   REMARKS
GOODLAND       SUNNY     86  47  25 N7        29.84F
HAYS           MOSUNNY   91  66  43 SW14      29.75S
HILL CITY      SUNNY     89  60  37 VRB5      29.76S
RUSSELL        PTSUNNY   90  66  45 SW20      29.73F
$$

KSZ061>065-074>080-084>089-282000-
SOUTHWEST KANSAS

CITY           SKY/WX    TMP DP  RH WIND       PRES   REMARKS
DODGE CITY     SUNNY     92  62  36 S16G29    29.77F
GARDEN CITY    SUNNY     91  58  32 E5        29.78S
GREAT BEND     MOSUNNY   91  68  46 S20G26    29.76F HX  95
LIBERAL        SUNNY     90  57  32 SW6       29.78F
PRATT          MOSUNNY   89  63  41 SW23G30   29.78S
$$

KSZ066>073-081>083-090>101-282000-
SOUTHEAST KANSAS

CITY           SKY/WX    TMP DP  RH WIND       PRES   REMARKS
CHANUTE        MOSUNNY   90  69  50 S21G33    29.84F
COFFEYVILLE    MOSUNNY   89  71  55 S21G29    29.84F HX  95
HUTCHINSON     SUNNY     95  65  37 S23G36    29.75F HX  97
MEDICINE LODGE   N/A     94  61  33 S20G36    29.74F
NEWTON         MOSUNNY   91  67  44 S28G36    29.78S
PARSONS        MOSUNNY   88  70  55 S16G24    29.86F
WICHITA INTL   MOSUNNY   91  68  46 S25G31    29.77F HX  95
WICHITA JABRA  SUNNY     88  68  51 S21G33    29.78F
WICHITA MCCONL PTSUNNY   90  66  45 SW23G36   29.78F
WINFIELD       SUNNY     89  68  49 S21G31    29.81F
$$

KSZ007>012-019>026-033>040-048>060-102>105-282000-
NORTHEAST KANSAS

CITY           SKY/WX    TMP DP  RH WIND       PRES   REMARKS
CONCORDIA      MOSUNNY   92  67  43 SW25G32   29.71F HX  95
EMPORIA        SUNNY     89  70  53 S23G36    29.79F
LAWRENCE       MOSUNNY   89  72  56 S15G29    29.78F HX  96
MANHATTAN      SUNNY     95  69  42 SW22G32   29.72F HX 100
MARYSVILLE     PTSUNNY   90  70  51 SW17G30   29.71F HX  95
OLATHE IND     SUNNY     88  69  53 S24G32    29.81F
OLATHE EXE     PTSUNNY   85  71  63 S21G30    29.81F
SALINA         MOSUNNY   98  64  32 S28G36    29.72F HX 100
TOPEKA BILLARD MOSUNNY   89  72  56 S15G28    29.75F HX  96
TOPEKA FORBES  MOSUNNY   90  72  55 S22G33    29.77F HX  97
$$




USA.gov is the U.S. government's official web portal to all federal, state and local government web resources and services.